Terminal Aerodrome Forecast
Issued by NWS

Current Version | Previous Version | Graphics & Text | Print | Product List | Glossary On
Versions: 1 2 3 4 5 6 7 8 9 10 11 12 13 14 15 16 17 18
000
FTUS41 KPBZ 231738
TAFMGW
TAF
KMGW 231738Z 2318/2418 21008KT P6SM VCSH SCT015 OVC035
     FM232000 22015G26KT P6SM VCTS OVC012CB
     FM240000 23013G23KT 3SM SHRA VCTS OVC015CB
     FM240600 26008KT 5SM BR VCSH OVC006=

USA.gov is the U.S. government's official web portal to all federal, state and local government web resources and services.